Lid_Strength_Index
8 8 8 8 8 8 8 7 7 7 6 7 7 7 6 6 5 5 6 6 7 8 9 9 10 10 10 11 10 10 11 10 10 10 10 9 8 9 9 9 9 9 9
10 9 9 9 8 8 8 7 7 7 6 6 7 6 6 5 5 6 6 6 8 8 9 9 10 10 10 11 11 11 11 10 10 11 11 11 10 9 9 9 9 10 10
9 10 9 9 9 8 8 7 7 6 6 6 6 5 5 5 5 6 7 7 8 8 8 9 10 10 10 11 11 11 11 11 10 10 11 13 14 12 10 9 9 10 10
7 9 9 9 9 8 8 8 7 6 5 5 5 5 5 6 5 6 8 8 8 8 8 9 9 10 10 10 10 10 11 11 11 10 9 10 11 13 14 11 10 10 10
7 9 9 9 8 8 8 8 7 6 5 5 5 5 5 5 5 7 9 9 9 8 8 8 9 10 10 10 11 10 10 11 10 10 11 11 11 12 13 14 13 11 10
7 8 9 9 9 9 9 8 7 6 6 6 6 5 5 6 6 9 10 9 9 8 7 8 10 10 9 9 9 10 11 12 12 11 11 12 12 12 13 14 13 12 12
8 10 10 9 9 9 9 8 7 7 6 6 6 6 6 6 7 8 9 9 9 9 9 9 10 9 9 10 10 11 12 13 14 14 13 13 13 12 12 13 14 14 12
10 9 10 9 9 9 9 8 7 6 6 6 5 6 6 7 7 8 8 8 9 9 10 10 10 9 10 11 12 12 12 13 14 15 15 15 14 14 14 14 15 16 14
10 10 9 8 8 8 8 8 7 6 5 5 6 7 8 8 8 7 7 9 10 10 10 10 10 11 12 12 12 14 14 15 15 15 15 15 14 14 14 14 14 15 17
9 8 8 8 8 7 7 7 6 6 6 7 8 9 9 9 9 9 10 10 10 9 10 11 11 12 12 13 14 15 14 15 15 15 15 15 15 14 14 14 13 13 14
9 9 8 8 8 7 7 7 6 8 9 10 10 10 10 10 10 10 10 10 10 10 10 12 13 13 14 14 15 15 15 15 15 15 15 15 14 14 14 13 14 14 13
10 9 8 8 7 7 7 8 8 10 10 10 10 10 11 10 11 11 11 11 11 11 12 12 13 14 14 15 15 15 15 16 16 16 15 15 13 14 14 14 14 12 10
9 9 10 10 10 9 9 10 11 11 10 11 11 12 11 11 12 12 11 11 12 13 13 13 14 15 15 15 15 16 16 16 16 16 16 16 15 15 14 14 12 9 8
10 11 11 12 11 10 11 11 11 11 11 12 12 12 12 12 12 12 12 12 14 14 14 14 15 15 15 15 15 16 16 16 16 16 16 16 15 15 14 12 9 8 9
11 11 12 12 12 12 12 12 12 12 12 13 13 13 13 13 13 13 15 15 15 15 15 15 15 15 14 14 15 16 16 17 17 16 16 15 14 13 12 10 9 9 9
11 12 12 12 13 13 13 13 13 13 13 13 13 13 13 14 15 16 16 16 16 16 15 16 15 15 14 14 14 15 17 17 17 17 16 15 14 13 10 8 7 7 9
12 12 12 13 13 13 13 14 14 13 13 14 14 14 15 16 16 16 17 17 17 17 16 16 16 16 15 14 14 14 16 17 17 17 16 16 14 12 10 8 7 7 7
11 12 13 13 14 14 14 14 13 13 14 15 15 15 16 17 17 17 18 18 17 17 17 16 16 16 15 14 14 15 16 17 16 16 16 16 14 12 9 8 9 9 9
11 12 13 13 14 14 14 15 15 15 15 16 16 16 16 17 17 18 19 18 18 17 17 16 17 17 17 15 15 15 16 16 16 15 15 14 13 10 7 9 10 10 10
12 13 13 14 14 15 14 15 16 16 16 16 16 16 17 17 18 19 19 19 19 17 17 17 17 16 17 16 15 15 16 16 16 15 15 14 12 9 8 9 11 11 10
13 13 14 14 15 15 15 16 17 17 16 16 16 17 17 17 18 18 19 19 19 18 18 18 18 17 17 17 15 14 15 15 15 16 15 14 12 10 9 9 10 10 10
13 14 15 15 15 15 15 17 17 16 16 16 17 18 18 17 18 19 19 18 19 19 19 19 19 18 18 16 16 14 14 14 16 16 15 14 12 10 10 10 10 10 11
14 14 15 16 17 16 16 17 17 17 17 18 18 18 18 18 18 19 19 19 19 20 19 19 19 19 17 18 16 15 15 15 16 16 15 14 12 11 11 11 11 11 12
14 15 16 17 18 17 17 17 17 17 18 18 19 19 19 19 19 18 18 19 19 20 19 19 19 20 19 18 17 16 17 16 16 17 16 16 13 13 13 12 12 12 12
15 15 16 17 18 17 17 17 17 17 18 18 18 19 19 19 19 19 19 18 18 18 19 19 19 20 20 18 16 16 16 17 17 18 18 17 16 16 15 14 13 13 13
16 16 17 17 18 17 18 17 17 18 19 19 19 19 20 20 20 20 19 16 16 15 15 15 18 17 16 15 15 15 16 16 16 18 20 20 18 16 14 14 14 14 13